BREEZE-M DEB, 32497

Orbit data source: Space-Track

BREEZE-M DEB, 32497 is space debris in HEO originally from a launch on Tue, 28 Feb 2006 UTC launched from the Tyuratam Missile And Space Complex (TTMTR). Debris objects in space refer to the collection of defunct objects orbiting the Earth. Examples of debris include non-operational satellites, rocket bodies, and fragments generated from explosions, collisions, or faulty payload assembly.

Loading next visibility...
Identifier
32497, 2006-006AL
Orbit
HEO
Country
Flag of CISCIS
Related business
Manufacturer
Khrunichev
Mission
Spacecraft
Bus & Motor
Unknown
Mass
Unknown
Launch date (UTC)
2006-02-28 (20 years ago)
Launch vehicle
Unknown
Launch site
Tyuratam Missile And Space Complex (TTMTR)
Object type
Payload
Rocket body
Debris
Shape & HBR
Unknown shape, 0.1 m
Radar Cross Section
Medium (>0.1 m² and <1 m²)

Expand to show TLE details & history
Last TLE update: 1 day ago

TLE from 1 day ago
0 BREEZE-M DEB
1 32497U 06006AL  26161.76412569  .00003804  00000-0  36751-2 0  9992
2 32497  51.7123  18.4914 4973017 123.3706 294.3230  5.48867031 40083
Epoch: 2026-06-10T18:20Z
TLE epoch observation values (Epoch: 2026-06-10T18:20:20.459Z)
Latitude
-0.00002°
Longitude
-155.70057°
Altitude
7,676.335 km
Speed
5.231 km/s
True Right ascension
01h 14m 00s
True Declination
0° 00' 00"
Sunlit
Object was in daylight at epoch
Visualization orbit readout
Latitude
Unknown
Longitude
Unknown
Altitude
Unknown
Speed
Unknown
Apparent Right ascension
Unknown
Apparent Declination
Unknown
Sunlit
N/A
Visualization observer readout
Local Sidereal Time
12:53:38
Azimuth
Unknown
Elevation
Unknown
Doppler factor
Unknown
Orbital elements
Apogee altitude
13,949.117 km
Perigee altitude
446.457 km
Semi-major axis
13,575.924 km
Eccentricity
0.4973
Inclination
51.7123°
RAAN
18.4914°
Arg. of periapsis
123.3706°
True anomaly
236.68522°
Mean anomaly
294.323°
Eccentric anomaly
265.90254°
Mean motion
1.37211 °/min
Orbital period
262.37 mins
BSTAR
0.0036751
Loading maneuver chart data...
Computing Atmospheric mass density...
Loading historical data...
Loading historical data...
Loading historical data...
Loading historical data...
Loading historical data...
Loading historical data...
Loading historical data...

Documentation

Showing up to 5 results
|